Powrót do katalogu

TIROS 4

AktywnyPogodaLEO
NORAD 226·PAYLOAD·🇺🇸 United States

Wystrzelony Feb 8, 1962 z Cape Canaveral Space Force Station

Loading…

Następne Przeloty (najbliższe 24 godziny)

TLE

ŚwieżeSource: Space-Track

Epoka: Sep 14, 2026, 05:40 UTC

1 00226U 62002A   26257.23656729  .00000010  00000-0  48375-4 0  9994
2 00226  48.2974 327.6436 0076619 259.3615  99.8648 14.47216054381344

Śledź TIROS 4 w czasie rzeczywistym z AllMySat

Download on the App Store